Regional Weather Roundup
Issued by NWS

Home | Current Version | Previous Version | Text Only | Print | Product List | Glossary On
Versions: 1 2 3 4 5 6 7 8 9 10 11 12 13 14 15 16 17 18 19 20 21 22 23 24 25 26 27 28 29 30 31 32 33 34 35 36 37 38 39 40 41 42 43 44 45 46 47 48 49 50
748
ASUS43 KLMK 170402
RWRKY
KENTUCKY REGIONAL WEATHER ROUNDUP
NATIONAL WEATHER SERVICE LOUISVILLE KY
1100 PM EST SAT DEC 16 2017

NOTE "FAIR" INDICATES FEW OR NO CLOUDS BELOW 12,000 FEET
WITH NO SIGNIFICANT WEATHER AND/OR OBSTRUCTIONS TO VISIBILITY.

KYZ001>023-026-027-061>063-070>075-170500-
WESTERN AND SOUTH CENTRAL KENTUCKY

CITY           SKY/WX    TMP DP  RH WIND       PRES   REMARKS
PADUCAH        CLOUDY    45  29  53 S5        30.16R
HENDERSON      PTCLDY    38  29  70 S7        30.17R WCI  33
OWENSBORO      CLOUDY    40  30  67 S8        30.19R WCI  34
HOPKINSVILLE   CLOUDY    44  28  53 S6        30.19S
BOWLING GREEN  CLOUDY    43  31  62 S8        30.22R
GLASGOW        NOT AVBL
$$

KYZ024-025-028>034-038-045-046-053-170500-
NORTH CENTRAL KENTUCKY

CITY           SKY/WX    TMP DP  RH WIND       PRES   REMARKS
LOUISVILLE/SDF MOCLDY    44  29  55 S7        30.18R
LOUISVILLE/LOU CLOUDY    39  30  70 S6        30.19R WCI  35
FORT KNOX      PTCLDY    38  29  69 SW9       30.17R WCI  31
$$

KYZ035>037-039>044-047>052-055>060-089>105-170500-
NORTHEAST KENTUCKY

CITY           SKY/WX    TMP DP  RH WIND       PRES   REMARKS
LEXINGTON      CLOUDY    38  28  67 S9        30.20R WCI  31
COVINGTON      CLOUDY    42  30  62 SW9       30.15R
FRANKFORT      CLOUDY    41  27  57 SW9       30.18R
$$

KYZ054-064>069-076>088-106>120-170500-
SOUTHEAST KENTUCKY

CITY           SKY/WX    TMP DP  RH WIND       PRES   REMARKS
JACKSON        CLOUDY    39  26  59 SW6       30.21R WCI  35
LONDON         CLOUDY    34  25  69 CALM      30.23R
SOMERSET       NOT AVBL
MIDDLESBORO    CLOUDY    29  26  91 CALM      30.26S
MONTICELLO     PTCLDY    29  26  89 NE8       30.25R WCI  21
$$





USA.gov is the U.S. government's official web portal to all federal, state and local government web resources and services.